Погода в Хако

Коста-Рика     9°36′51″N   84°37′40″W
темп.,
°C
ветер,
м/с
пор.,
м/с
влажн.,
%
обл.,
%
осадки,
мм/ч
давл.,
гПа
погр.,
м
9 августа, вт
вт900:00+27з1176100 19.2 101096
03:00+27вюв127999 5.7 100994
06:00+27всв327969 7.8 1010218
09:00+27вюв227958 0.1 1011298
12:00+28ююз237788 0.1 1010385
15:00+28ююз4479100 0.3 1008539
18:00+28юз4482100 2.8 1009419
21:00+28з2278100 8.8 101173
10 августа, ср
ср1000:00+28ссз1177100 9.5 1010167
03:00+27в2279100 0.5 1009222
06:00+27в3381100 0.6 1010361
09:00+27в3380100 0.0 1012289
12:00+27ююв337920 0.2 1011435
15:00+28ю4476100 0.6 1009618
18:00+27ю2381100 5.6 1010107
21:00+26ююз4488100 7.9 1012256
11 августа, чт
чт1100:00+26ююз4383100 12.2 1012285
03:00+26з2286100 1.4 1010337
06:00+26сз338361 1.9 1011360
09:00+27сз227999 0.1 1012399
12:00+27зюз437989 0.1 1011459
15:00+27юз547998 2.1 1009551
18:00+26ю1182100 8.4 101073
21:00+25вюв2288100 6.9 1013145
12 августа, пт
пт1200:00+24юв3393100 17.8 1012292
03:00+24юз1290100 2.6 1011227
06:00+24юв3390100 10.2 1012229
09:00+24вюв4493100 12.9 1014311
12:00+24юв3387100 15.3 1014365
15:00+25зсз2283100 0.2 1011275
18:00+25зсз2281100 0.2 1012347
21:00+26ююз1179100 0.0 1013376
13 августа, сб
сб1300:00+26юз1079100 0.0 1013469
03:00+26св0179100 0.0 1011443
06:00+26св227998 0.0 1012454
09:00+26ююз2178100 0.0 1013489
12:00+26ю227662 0.0 1013519
15:00+27ю3373100 0.0 1011613
18:00+27ююв2272100 0.0 1012514
21:00+27ююв1173100 0.0 1013510